Ketchikan, AK

2:26 PM AKST on December 09, 2018 (GMT -0900)
Ketchikan International

Weather History for PAKT - October, 2018

Change the Weather History Date:

Saturday, October 27, 2018

  Actual Average Record
Temperature  
Mean Temperature 48 °F -  
Max Temperature 57 °F 48 °F 59 °F (1965)
Min Temperature 42 °F 37 °F 21 °F (1991)
Degree Days  
Heating Degree Days 16    
Moisture  
Dew Point 39 °F    
Average Humidity 73    
Maximum Humidity 93    
Minimum Humidity 30    
Precipitation  
Precipitation 0.00 in - - ()
Sea Level Pressure  
Sea Level Pressure 29.79 in    
Wind  
Wind Speed 6 mph (SSE)    
Max Wind Speed 24 mph    
Max Gust Speed 37 mph    
Visibility 10 miles    
Events      
Averages and records for this station are not official NWS values.
T = Trace of Precipitation, MM = Missing Value Source: NWS Daily Summary

Daily Weather History Graph

Daily Weather History Graph

Search for Another Location

Airport or City:

Astronomy

Oct. 27, 2018 Rise Set
Actual Time 7:41 AM AKDT 5:18 PM AKDT
Civil Twilight 7:03 AM AKDT 5:56 PM AKDT
Nautical Twilight 6:20 AM AKDT 6:39 PM AKDT
Astronomical Twilight 5:38 AM AKDT 7:21 PM AKDT
Moon 7:29 PM AKDT (10/27) 11:08 AM AKDT (10/27)
Length of Visible Light 10h 53m
Length of Day
9h 36m
Waning Gibbous, 89% of the Moon is Illuminated
Oct 27
Waning Gibbous
Oct 31
Last Quarter
Nov 7
New
Nov 15
First Quarter
Nov 22
Full

Hourly Weather History & Observations

Time (AKDT) Temp. Windchill Dew Point Humidity Pressure Visibility Wind Dir Wind Speed Gust Speed Precip Events Conditions
12:26 AM 44.1 °F 40.8 °F 42.1 °F 93% 29.94 in 10.0 mi ESE 5.8 mph - N/A   Mostly Cloudy
12:53 AM 45.0 °F 42.6 °F 42.1 °F 90% 29.96 in 10.0 mi SE 4.6 mph - N/A   Mostly Cloudy
1:05 AM 44.1 °F 41.5 °F 42.1 °F 93% 29.95 in 10.0 mi South 4.6 mph - N/A   Scattered Clouds
1:14 AM 45.0 °F 42.6 °F 42.1 °F 90% 29.95 in 10.0 mi South 4.6 mph - N/A   Scattered Clouds
1:24 AM 45.0 °F 42.6 °F 42.1 °F 90% 29.95 in 10.0 mi South 4.6 mph - N/A   Mostly Cloudy
1:53 AM 46.0 °F 43.9 °F 43.0 °F 89% 29.96 in 10.0 mi SSE 4.6 mph - N/A   Overcast
2:25 AM 46.0 °F 43.1 °F 43.0 °F 89% 29.95 in 10.0 mi South 5.8 mph - N/A   Mostly Cloudy
2:53 AM 46.0 °F 43.9 °F 43.0 °F 89% 29.96 in 10.0 mi South 4.6 mph - N/A   Mostly Cloudy
3:53 AM 46.9 °F - 44.1 °F 90% 29.97 in 10.0 mi South 6.9 mph - N/A   Partly Cloudy
4:53 AM 46.9 °F - 44.1 °F 90% 29.96 in 10.0 mi SSE 6.9 mph - N/A   Overcast
5:53 AM 48.0 °F - 45.0 °F 89% 29.94 in 10.0 mi South 6.9 mph - 0.00 in   Overcast
5:59 AM 48.2 °F - 44.6 °F 87% 29.94 in 10.0 mi South 8.1 mph - N/A   Overcast
6:53 AM 48.2 °F - 44.6 °F 87% 29.94 in 10.0 mi South 6.9 mph - N/A   Overcast
7:53 AM 48.2 °F - 42.8 °F 82% 29.93 in 10.0 mi South 6.9 mph - N/A   Overcast
8:53 AM 48.2 °F - 42.8 °F 82% 29.92 in 10.0 mi Variable 5.8 mph - N/A   Overcast
9:53 AM 48.2 °F - 42.8 °F 82% 29.91 in 10.0 mi Variable 6.9 mph - N/A   Overcast
10:53 AM 50.0 °F - 41.0 °F 71% 29.89 in 10.0 mi South 9.2 mph - N/A   Overcast
11:53 AM 53.6 °F - 39.2 °F 58% 29.86 in 10.0 mi SSE 8.1 mph 20.7 mph N/A   Overcast
12:53 PM 53.6 °F - 39.2 °F 58% 29.82 in 10.0 mi ESE 18.4 mph 25.3 mph N/A   Mostly Cloudy
1:53 PM 55.4 °F - 39.2 °F 54% 29.79 in 10.0 mi Variable 6.9 mph - N/A   Mostly Cloudy
2:53 PM 55.4 °F - 35.6 °F 47% 29.74 in 10.0 mi ESE 12.7 mph - N/A   Partly Cloudy
3:53 PM 55.4 °F - 35.6 °F 47% 29.69 in 10.0 mi East 8.1 mph - N/A   Clear
4:53 PM 50.0 °F - 35.6 °F 58% 29.64 in 10.0 mi Calm Calm - N/A   Clear
5:53 PM 48.2 °F - 35.6 °F 62% 29.57 in 10.0 mi Variable 4.6 mph - N/A   Clear
6:53 PM 42.8 °F - 35.6 °F 76% 29.52 in 10.0 mi Calm Calm - N/A   Clear
7:53 PM 44.6 °F - 35.6 °F 71% 29.47 in 10.0 mi Calm Calm - N/A   Clear
8:53 PM 48.2 °F - 30.2 °F 50% 29.42 in 10.0 mi West 8.1 mph - N/A   Clear
9:53 PM 50.0 °F - 30.9 °F 48% 29.37 in 10.0 mi Variable 4.6 mph - N/A   Clear
10:53 PM 55.9 °F - 25.0 °F 30% 29.34 in 10.0 mi East 24.2 mph 36.8 mph N/A   Clear
11:53 PM 55.0 °F - 30.0 °F 38% 29.34 in 10.0 mi SE 17.3 mph 35.7 mph N/A   Overcast